COSMOS 1603 DEB

Satellite information

Favourite Embed

Satellite Type and Status

DEBRISIN ORBIT

Key statistics

Satellite COSMOS 1603 DEB at a glance.

Uptime

14893

Days in orbit

Revolutions

≈ 14.2

Per day

Orbit

LEO

Low Earth Orbit

Inclination

71.0

Latest

Satellite identification and parameters

Extended collection of information and parameters for COSMOS 1603 DEB.

Object identification

Identified? True

Debris? True

Object name: COSMOS 1603 DEB

International designator: 1984-106AE

Object number (NORAD): 43312

Object ID (CCSDS): 43312

Country: COMMONWEALTH OF INDEPENDENT STATES (CIS)

Current information (Y/N): Y

RCS size: SMALL

Orbital parameters

Period: 101.346 minutes

Inclination: 71.0249 deg

SMA: 7200.518 km

Apoapsis: 835.215 km

Periapsis: 809.551 km

RAAN: 27.9063 deg

Eccentricy: 0.0017821

Argument of periapsis: 33.0967 deg

Mean anomaly: 327.127 deg

Mean motion: 14.20879276 rev/day

Mean motion (dot): 0.00000948 rev/day2

B* drag term: 0.00045982 1/REarth

Two-line elements (TLE)

Creation date: July 8, 2025, 2:27 a.m.

Reference frame: TEME

Reference center: EARTH

Epoch: July 7, 2025, 7:50 p.m. UTC

TLE line 0: 0 COSMOS 1603 DEB

TLE line 1: 1 43312U 84106AE 25188.82708256 .00000948 00000-0 45982-3 0 9996

TLE line 2: 2 43312 71.0249 27.9063 0017821 33.0967 327.1270 14.20879276485759

Live tracking on map

Real-time ground track for satellite COSMOS 1603 DEB.

In-orbit conjunctions

A list of the most updated potential collisions computed for object COSMOS 1603 DEB.

Target Orbit TCA Probability of collision Miss distance Type
NOAA 16 DEB SSO 2024-11-14 10:38:32 0.0007843578 205.0 (m) DEBRIS
FENGYUN 1C DEB SSO 2024-11-11 00:47:32 0.0002436076 392.0 (m) DEBRIS
FENGYUN 1C DEB SSO 2024-07-08 12:25:50 0.0002925236 64.0 (m) DEBRIS
SL-16 DEB LEO 2024-06-10 23:49:16 0.0001031868 349.0 (m) DEBRIS

Associated space launch

Second generation ELING satellite

COSMOS 1603 DEB was lifted into orbit during the mission ‘Proton | Tselina-2 1’, on board a Proton space rocket.

The launch took place on Sept. 28, 1984, 2 p.m. from 200/39 (200L).

For more information about the launch, click the button.

Launch to space Proton | Tselina-2 1
Proton | Tselina-2 1

Agency: N/A

Status: Launch Successful

Launch date: Sept. 28, 1984, 2 p.m. UTC

Rocket: Proton

Launch pad: 200/39 (200L)

Location: Baikonur Cosmodrome, Republic of Kazakhstan

...

Latest news about this satellite

There are no fresh news available about this satellite. Check back as we update our databases every day.


Newsletter sign-up

Weekly statistics, charts and insights to help you stay on top of the space industry.